Weather in Shemalakovo

Russia / Chuvash Republic     54°58′23″N   47°54′31″E
temp.,
°C
wind,
m/s
gust,
m/s
humid.,
%
clouds,
%
prec.,
mm/h
press.,
hPa
HPBL,
m
9 may, sun
sun900:00+11sse41176100 0.0 1012211
03:00+10sse477963 0.0 1012117
06:00+12sse4108052 0.0 1011242
09:00+14sse51273100 0.0 1011382
12:00+20sse71153100 0.0 10111362
15:00+20sse6960100 0.6 10111408
18:00+18se51272100 0.6 1011348
21:00+15sse51277100 0.6 1012231
10 may, mon
mon1000:00+14se3480100 0.1 101266
03:00+13w2285100 0.3 101533
06:00+14ne3686100 0.0 1016180
09:00+18ese4665100 0.0 1017426
12:00+21se345199 0.0 10181001
15:00+23ese344579 0.0 10191607
18:00+21ene376393 0.0 1020164
21:00+17nne5881100 0.2 1022201
11 may, tue
tue1100:00+14nne5992100 0.0 1023189
03:00+13ne3791100 0.0 1023133
06:00+14ne4785100 0.0 1024195
09:00+19ene4558100 0.0 1025482
12:00+22e4547100 0.0 10261087
15:00+23e454499 0.0 10261524
18:00+21ene3661100 0.0 1026159
21:00+18e3463100 0.0 102777
12 may, wed
wed1200:00+17ese226391 0.0 102714
03:00+14ene22724 0.0 102724
06:00+15e257177 0.0 1028157
09:00+21ese475235 0.0 1028567
12:00+23se5745100 0.0 10281699
15:00+23se564221 0.0 10272087
18:00+21se355599 0.0 1027134
21:00+17se2362100 0.0 102730
13 may, thu
thu1300:00+16ese226582 0.0 102726
03:00+14ese3366100 0.0 102734
06:00+16ese386686 0.0 1027222
09:00+20se58475 0.0 1027684
12:00+23se683961 0.0 10261257
15:00+24se68385 0.0 10251359
18:00+22ese47525 0.0 1025224
21:00+17se49605 0.0 1025153